Sisseton, SD

2:36 AM CDT on May 01, 2017 (GMT -0500)
Sisseton

Weather History for K8D3 - July, 2015

Change the Weather History Date:

Sunday, July 12, 2015

  Actual Average Record
Temperature  
Mean Temperature 84 °F 71 °F  
Max Temperature 97 °F 83 °F 109 °F (1936)
Min Temperature 70 °F 60 °F 47 °F (1950)
Degree Days  
Heating Degree Days 0 0  
Month to date heating degree days 13 3  
Since 1 June heating degree days 27 65  
Since 1 July heating degree days 13 3  
Cooling Degree Days 19 7  
Month to date cooling degree days 63 73  
Year to date cooling degree days 204 190  
Since 1 June cooling degree days 187 167  
Growing Degree Days 33 (Base 50)    
Moisture  
Dew Point 71 °F    
Average Humidity 68    
Maximum Humidity 100    
Minimum Humidity 36    
Precipitation  
Precipitation 0.03 in 0.12 in 1.39 in (1992)
Month to date precipitation 0.21 1.37  
Year to date precipitation 9.24 12.09  
Sea Level Pressure  
Sea Level Pressure 29.65 in    
Wind  
Wind Speed 11 mph (South)    
Max Wind Speed 23 mph    
Max Gust Speed 31 mph    
T = Trace of Precipitation, MM = Missing Value Source: NWS Daily Summary

Daily Weather History Graph

Daily Weather History Graph

Search for Another Location

Airport or City:

Trip Planner

Search our weather history database for the weather conditions in past years. The results will help you decide how hot, cold, wet, or windy it might be!

Date:

Astronomy

Jul. 12, 2015 Rise Set
Actual Time 5:50 AM CDT 9:16 PM CDT
Civil Twilight 5:13 AM CDT 9:53 PM CDT
Nautical Twilight 4:24 AM CDT 10:41 PM CDT
Astronomical Twilight 3:21 AM CDT 11:43 PM CDT
Moon 3:10 AM CDT (7/12) 6:08 PM CDT (7/12)
Length of Visible Light 16h 39m
Length of Day
15h 26m
Waning Crescent, 12% of the Moon is Illuminated
Jul 12
Waning Crescent
Jul 15
New
Jul 23
First Quarter
Jul 31
Full
Aug 6
Last Quarter

Hourly Weather History & Observations

Time (CDT) Temp. Heat Index Dew Point Humidity Pressure Visibility Wind Dir Wind Speed Gust Speed Precip Events Conditions
12:56 AM 75.0 °F - 72.0 °F 90% 29.77 in - South 8.1 mph - N/A   Unknown
1:56 AM 73.0 °F - 72.0 °F 96% 29.76 in - SSE 8.1 mph - N/A   Unknown
2:56 AM 72.0 °F - 71.1 °F 97% 29.75 in - South 8.1 mph - N/A   Unknown
3:56 AM 70.0 °F - 69.1 °F 97% 29.74 in - SSE 8.1 mph - N/A   Unknown
4:56 AM 70.0 °F - 69.1 °F 97% 29.73 in - SSE 8.1 mph - N/A   Unknown
5:56 AM 70.0 °F - 69.1 °F 97% 29.72 in - SSE 10.4 mph - N/A   Unknown
6:56 AM 71.1 °F - 70.0 °F 96% 29.72 in - SSE 9.2 mph - N/A   Unknown
7:56 AM 75.0 °F - 72.0 °F 90% 29.70 in - SSE 11.5 mph - N/A   Unknown
8:56 AM 81.0 °F 86.2 °F 73.9 °F 79% 29.69 in - South 10.4 mph - N/A   Unknown
9:56 AM 86.0 °F 93.8 °F 73.9 °F 67% 29.67 in - South 12.7 mph - N/A   Unknown
10:56 AM 86.0 °F 95.1 °F 75.0 °F 70% 29.66 in - South 11.5 mph - N/A   Unknown
11:56 AM 88.0 °F 100.2 °F 77.0 °F 70% 29.65 in - South 11.5 mph - N/A   Unknown
12:56 PM 90.0 °F 99.0 °F 73.9 °F 59% 29.65 in - SW 13.8 mph - N/A   Unknown
1:56 PM 88.0 °F 98.5 °F 75.9 °F 67% 29.63 in - SSW 15.0 mph - N/A   Unknown
2:56 PM 95.0 °F 105.2 °F 73.9 °F 50% 29.60 in - SSW 12.7 mph - N/A   Unknown
3:56 PM 96.1 °F 101.0 °F 68.0 °F 40% 29.60 in - SW 19.6 mph 24.2 mph N/A   Unknown
4:56 PM 93.0 °F 94.2 °F 63.0 °F 37% 29.57 in - WSW 21.9 mph 31.1 mph N/A   Unknown
5:56 PM 91.0 °F 98.2 °F 72.0 °F 53% 29.55 in - WSW 15.0 mph - 0.03 in   Unknown
6:56 PM 93.0 °F 95.0 °F 64.9 °F 39% 29.53 in - WSW 10.4 mph 19.6 mph N/A   Unknown
7:56 PM 89.1 °F 91.3 °F 66.0 °F 46% 29.56 in - NNW 5.8 mph - N/A   Unknown
8:56 PM 79.0 °F - 69.1 °F 72% 29.58 in - East 9.2 mph - N/A   Unknown
9:56 PM 73.0 °F - 69.1 °F 87% 29.61 in - East 4.6 mph - N/A   Unknown
10:56 PM 72.0 °F - 69.1 °F 91% 29.61 in - SW 8.1 mph - N/A   Unknown
11:56 PM 71.1 °F - 66.0 °F 84% 29.60 in - NW 6.9 mph - N/A   Unknown